Tracking 30918 objects as of 2-Jul-2025
HD Live streaming from Space Station
objects crossing your sky now

SHIYAN 6 02 (SY-6 02)

Track SHIYAN 6 02 (SY-6 02) now!
10-day predictions


NORAD ID: 45859
Int'l Code: 2020-043A
Perigee: 607.7 km
Apogee: 789.4 km
Inclination: 98.2 °
Period: 98.6 minutes
Semi major axis: 7069 km
RCS: Unknown
Launch date: July 4, 2020
Source: People's Republic of China (PRC)
Launch site: Jiuquan Satellite Launch Center, China (JSC)
Your satellite tracking list
KL-BETA B
Track 1 satellite(s)




NASA's NSSDC Master Catalog

Two Line Element Set (TLE):
1 45859U 20043A   25182.99743412  .00000152  00000-0  38070-4 0  9997
2 45859  98.1914 192.9964 0128465 240.3535 118.4821 14.60551552265735
Source of the keplerian elements: AFSPC